User: anonymous   Login
Location: Unspecified
(43.4354°N, 0.0000°E)
Time: 01:03:15
(UTC+00:00)
Language:

DX 1 - Orbit

View from above orbital plane
View from above orbital plane
View from above satellite
View from above satellite

Ground track
Ground track

The orbit data is extracted from the following two-line orbital elements,

1 40071U 14037C   19287.69903423  .00000115  00000-0  22242-4 0  9993
2 40071  98.4410  87.7143 0007930 200.2759 159.8143 14.81298245284722
Epoch (UTC): 14 October 2019 16:46:36
Eccentricity: 0.0007930
inclination: 98.4410°
perigee height: 619 km
apogee height: 631 km
right ascension of ascending node: 87.7143°
argument of perigee: 200.2759°
revolutions per day: 14.81298245
mean anomaly at epoch: 159.8143°
orbit number at epoch: 28472

The dashed part of the orbit path shows where the satellite is in the earth's shadow,  

DLR